This is the latest recevied weather packets stored in our database for station/object OE-11280. If no packets are shown the sender has not sent any weather packets the latest 10 day(s).
| Time | Temp. | Humidity | Pressure | Rain* | Wind** | Luminosity | Snow |
|---|---|---|---|---|---|---|---|
| 1787839892 | 29.44° C | 48% | 1011 hPa | 0 mm | - | 541 W/m² | - |
| 1787839519 | 29.44° C | 47% | 1011 hPa | 0 mm | - | 584 W/m² | - |
| 1787838919 | 30° C | 49% | 1010.8 hPa | 0 mm | - | 602 W/m² | - |
| 1787838092 | 28.89° C | 49% | 1011.3 hPa | 0 mm | - | 620 W/m² | - |
| 1787837719 | 29.44° C | 48% | 1011.3 hPa | 0 mm | - | 657 W/m² | - |
| 1787837119 | 29.44° C | 49% | 1011.5 hPa | 0 mm | - | 627 W/m² | - |
| 1787836292 | 29.44° C | 50% | 1011.4 hPa | 0 mm | - | 675 W/m² | - |
| 1787835918 | 28.89° C | 50% | 1011.5 hPa | 0 mm | - | 487 W/m² | - |
| 1787835319 | 29.44° C | 50% | 1011.6 hPa | 0 mm | - | 730 W/m² | - |
| 1787834492 | 28.89° C | 50% | 1011.9 hPa | 0 mm | - | 724 W/m² | - |
| 1787834118 | 28.33° C | 50% | 1012 hPa | 0 mm | - | 700 W/m² | - |
| 1787833519 | 28.33° C | 52% | 1012.1 hPa | 0 mm | - | 730 W/m² | - |
| 1787832692 | 28.33° C | 52% | 1012.2 hPa | 0 mm | - | 724 W/m² | - |
| 1787832319 | 27.78° C | 54% | 1012.4 hPa | 0 mm | - | 724 W/m² | - |
| 1787831718 | 27.78° C | 53% | 1012.7 hPa | 0 mm | - | 730 W/m² | - |
| 1787830892 | 27.22° C | 54% | 1012.8 hPa | 0 mm | - | 748 W/m² | - |
| 1787830518 | 27.22° C | 54% | 1013.4 hPa | 0 mm | - | 754 W/m² | - |
| 1787829918 | 26.67° C | 53% | 1013.5 hPa | 0 mm | - | 760 W/m² | - |
| 1787829092 | 26.11° C | 54% | 1013.8 hPa | 0 mm | - | 779 W/m² | - |
| 1787828719 | 26.11° C | 56% | 1014 hPa | 0 mm | - | 821 W/m² | - |
| 1787828119 | 25.56° C | 57% | 1014.3 hPa | 0 mm | - | 736 W/m² | - |
| 1787827291 | 25° C | 58% | 1014.4 hPa | 0 mm | - | 754 W/m² | - |
| 1787826918 | 24.44° C | 60% | 1014.6 hPa | 0 mm | - | 468 W/m² | - |
| 1787826319 | 23.89° C | 61% | 1014.6 hPa | 0 mm | - | 578 W/m² | - |
| 1787825492 | 23.89° C | 62% | 1014.6 hPa | 0 mm | - | 766 W/m² | - |
* Rain latest hour (hover to see other rain measurements)
** Current wind speed in m/s (hover to see current wind gust speed)